Time,TemperatureF,DewpointF,PressureIn,WindDirection,WindDirectionDegrees,WindSpeedMPH,WindSpeedGustMPH,Humidity,HourlyPrecipIn,Conditions,Clouds,dailyrainin,SolarRadiationWatts/m^2,SoftwareType,DateUTC
2013-08-20 00:00:00,76.6,74.1,30.03,NNE,16,8.0,9.0,92,0.00,,,0.00,0,Wunderground v.1.15,2013-08-20 04:00:00,
2013-08-20 00:30:00,77.2,74.7,30.03,NNE,20,10.0,12.0,92,0.00,,,0.00,0,Wunderground v.1.15,2013-08-20 04:30:00,
2013-08-20 01:00:00,76.5,74.0,30.04,NE,34,6.0,7.0,92,0.00,,,0.00,0,Wunderground v.1.15,2013-08-20 05:00:00,
2013-08-20 01:30:00,76.4,73.9,30.02,NE,55,7.0,11.0,92,0.00,,,0.00,0,Wunderground v.1.15,2013-08-20 05:30:00,
2013-08-20 02:00:00,76.1,73.6,30.02,ENE,76,7.0,7.0,92,0.00,,,0.00,0,Wunderground v.1.15,2013-08-20 06:00:00,
2013-08-20 02:30:00,75.9,73.7,30.00,ENE,59,8.0,8.0,93,0.00,,,0.00,0,Wunderground v.1.15,2013-08-20 06:30:00,
2013-08-20 03:00:00,75.6,73.4,30.00,NE,40,6.0,8.0,93,0.00,,,0.00,0,Wunderground v.1.15,2013-08-20 07:00:00,
2013-08-20 03:30:00,75.8,73.6,30.00,NE,40,5.0,6.0,93,0.00,,,0.00,0,Wunderground v.1.15,2013-08-20 07:30:00,
2013-08-20 04:00:00,76.1,73.3,29.99,ENE,57,6.0,6.0,91,0.00,,,0.00,0,Wunderground v.1.15,2013-08-20 08:00:00,
2013-08-20 04:30:00,76.3,73.1,29.99,NE,46,8.0,12.0,90,0.00,,,0.00,0,Wunderground v.1.15,2013-08-20 08:30:00,
2013-08-20 05:00:00,76.1,73.3,29.99,ENE,58,5.0,5.0,91,0.00,,,0.00,0,Wunderground v.1.15,2013-08-20 09:00:00,
2013-08-20 05:30:00,75.7,73.2,29.99,ENE,61,3.0,6.0,92,0.00,,,0.00,0,Wunderground v.1.15,2013-08-20 09:30:00,
2013-08-20 06:00:00,75.8,73.3,30.00,ENE,78,4.0,4.0,92,0.00,,,0.00,0,Wunderground v.1.15,2013-08-20 10:00:00,
2013-08-20 06:30:00,75.8,73.0,30.00,NE,36,7.0,8.0,91,0.00,,,0.01,0,Wunderground v.1.15,2013-08-20 10:30:00,
2013-08-20 07:00:00,75.8,73.0,30.01,ENE,66,5.0,7.0,91,0.00,,,0.01,0,Wunderground v.1.15,2013-08-20 11:00:00,
2013-08-20 07:30:00,76.4,73.6,30.01,ENE,59,5.0,5.0,91,0.00,,,0.01,28,Wunderground v.1.15,2013-08-20 11:30:00,
2013-08-20 08:00:00,77.6,73.8,30.01,East,92,6.0,6.0,88,0.00,,,0.01,42,Wunderground v.1.15,2013-08-20 12:00:00,
2013-08-20 08:30:00,77.7,74.2,30.02,East,84,9.0,9.0,89,0.00,,,0.01,193,Wunderground v.1.15,2013-08-20 12:30:00,
2013-08-20 09:00:00,79.5,75.6,30.03,East,87,7.0,10.0,88,0.00,,,0.01,297,Wunderground v.1.15,2013-08-20 13:00:00,
2013-08-20 09:30:00,81.0,76.8,30.04,ENE,78,7.0,7.0,87,0.00,,,0.01,404,Wunderground v.1.15,2013-08-20 13:30:00,
2013-08-20 10:00:00,82.3,77.0,30.04,East,96,8.0,8.0,84,0.00,,,0.01,513,Wunderground v.1.15,2013-08-20 14:00:00,
2013-08-20 10:30:00,83.0,76.6,30.04,ESE,121,10.0,10.0,81,0.00,,,0.01,613,Wunderground v.1.15,2013-08-20 14:30:00,
2013-08-20 11:00:00,85.1,76.3,30.04,East,86,4.0,9.0,75,0.00,,,0.01,693,Wunderground v.1.15,2013-08-20 15:00:00,
2013-08-20 11:30:00,85.6,75.5,30.05,ENE,71,8.0,8.0,72,0.00,,,0.01,875,Wunderground v.1.15,2013-08-20 15:30:00,
2013-08-20 12:00:00,85.5,75.0,30.05,ESE,107,8.0,8.0,71,0.00,,,0.01,940,Wunderground v.1.15,2013-08-20 16:00:00,
2013-08-20 12:30:00,86.7,75.3,30.05,ENE,75,7.0,7.0,69,0.00,,,0.01,932,Wunderground v.1.15,2013-08-20 16:30:00,
2013-08-20 13:00:00,88.1,75.8,30.05,SSE,161,3.0,3.0,67,0.00,,,0.01,1072,Wunderground v.1.15,2013-08-20 17:00:00,
2013-08-20 13:30:00,87.2,74.9,30.03,East,91,4.0,5.0,67,0.00,,,0.01,251,Wunderground v.1.15,2013-08-20 17:30:00,
2013-08-20 14:00:00,88.8,74.6,30.03,ENE,59,6.0,7.0,63,0.00,,,0.01,949,Wunderground v.1.15,2013-08-20 18:00:00,
2013-08-20 14:30:00,89.8,73.6,30.02,East,90,5.0,7.0,59,0.00,,,0.01,925,Wunderground v.1.15,2013-08-20 18:30:00,
2013-08-20 15:00:00,86.7,74.9,30.00,SW,226,6.0,6.0,68,0.00,,,0.01,907,Wunderground v.1.15,2013-08-20 19:00:00,
2013-08-20 15:30:00,85.9,76.6,29.99,WSW,249,9.0,9.0,74,0.00,,,0.02,125,Wunderground v.1.15,2013-08-20 19:30:00,
2013-08-20 16:00:00,83.3,75.7,29.99,WNW,284,10.0,14.0,78,0.00,,,0.02,28,Wunderground v.1.15,2013-08-20 20:00:00,
2013-08-20 16:30:00,78.7,74.8,30.00,NW,306,11.0,11.0,88,0.00,,,0.02,54,Wunderground v.1.15,2013-08-20 20:30:00,
2013-08-20 17:00:00,79.9,74.6,30.01,West,273,6.0,6.0,84,0.00,,,0.02,37,Wunderground v.1.15,2013-08-20 21:00:00,
2013-08-20 17:30:00,80.0,74.4,30.01,NW,307,4.0,4.0,83,0.00,,,0.02,118,Wunderground v.1.15,2013-08-20 21:30:00,
2013-08-20 18:00:00,81.2,75.5,30.00,NNE,28,2.0,5.0,83,0.00,,,0.02,130,Wunderground v.1.15,2013-08-20 22:00:00,
2013-08-20 18:30:00,80.2,74.6,30.00,NNE,22,8.0,16.0,83,0.00,,,0.02,76,Wunderground v.1.15,2013-08-20 22:30:00,
2013-08-20 19:00:00,79.5,73.9,30.00,NE,42,5.0,5.0,83,0.00,,,0.02,49,Wunderground v.1.15,2013-08-20 23:00:00,
2013-08-20 19:30:00,80.2,74.2,30.00,ENE,76,3.0,4.0,82,0.00,,,0.02,25,Wunderground v.1.15,2013-08-20 23:30:00,
2013-08-20 20:00:00,81.2,75.2,30.00,NE,40,4.0,4.0,82,0.00,,,0.02,5,Wunderground v.1.15,2013-08-21 00:00:00,
2013-08-20 20:30:00,80.5,75.9,30.02,NNE,21,7.0,8.0,86,0.00,,,0.02,0,Wunderground v.1.15,2013-08-21 00:30:00,
2013-08-20 21:00:00,78.0,74.2,30.05,NNE,26,10.0,11.0,88,0.00,,,0.02,0,Wunderground v.1.15,2013-08-21 01:00:00,
2013-08-20 21:30:00,78.2,74.4,30.06,NE,39,6.0,8.0,88,0.00,,,0.02,0,Wunderground v.1.15,2013-08-21 01:30:00,
2013-08-20 22:00:00,78.1,73.9,30.06,ENE,62,6.0,6.0,87,0.00,,,0.02,0,Wunderground v.1.15,2013-08-21 02:00:00,
2013-08-20 22:30:00,78.6,74.1,30.06,NE,46,7.0,8.0,86,0.00,,,0.02,0,Wunderground v.1.15,2013-08-21 02:30:00,
2013-08-20 23:00:00,78.7,73.8,30.06,NE,53,7.0,8.0,85,0.00,,,0.02,0,Wunderground v.1.15,2013-08-21 03:00:00,
2013-08-20 23:30:00,78.0,74.2,30.06,ENE,57,6.0,7.0,88,0.00,,,0.02,0,Wunderground v.1.15,2013-08-21 03:30:00,